Location: ?ernice
(48.8383°N, 14.3803°E)
Time: 21:44:50
(UTC+00:00)

SL-27 R/B - Pass Details

Date: 23 May 2024
Orbit: 327 x 351 km, 74.7° (Epoch: 22 June)

Event Time Altitude Azimuth Distance (km) Brightness Sun altitude
Exits shadow 01:12:33 17° 149° (SSE) 923 3.7 -14.4°
Maximum altitude 01:13:54 26° 105° (ESE) 699 3.5 -14.3°
Drops below altitude 10° 01:16:16 10° 45° (NE) 1,262 6.0 -14.1°
Sets 01:18:22 0° 32° (NNE) 2,103 7.8 -13.9°
